Time,TemperatureF,DewpointF,PressureIn,WindDirection,WindDirectionDegrees,WindSpeedMPH,WindSpeedGustMPH,Humidity,HourlyPrecipIn,Conditions,Clouds,dailyrainin,SolarRadiationWatts/m^2,SoftwareType,DateUTC
2013-04-30 02:32:00,42.0,15.0,-100.00,NW,325,1.0,8.0,33,-99.99,,,0.00,0.000000,,2013-04-30 08:32:00,
2013-04-30 02:42:00,42.0,15.0,-100.00,NW,325,1.0,8.0,33,-99.99,,,0.00,0.000000,,2013-04-30 08:42:00,
2013-04-30 02:52:00,42.0,15.0,-100.00,NW,325,1.0,8.0,33,-99.99,,,0.00,0.000000,,2013-04-30 08:52:00,
2013-04-30 03:01:00,42.0,15.0,-100.00,NW,325,1.0,8.0,33,-99.99,,,0.00,0.000000,,2013-04-30 09:01:00,
2013-04-30 10:33:00,64.0,18.0,-100.00,SW,224,6.0,16.0,17,-99.99,,,0.00,704.000000,,2013-04-30 16:33:00,
2013-04-30 10:42:00,64.0,18.0,-100.00,SW,224,6.0,16.0,17,-99.99,,,0.00,704.000000,,2013-04-30 16:42:00,
2013-04-30 10:52:00,64.0,18.0,-100.00,SW,224,6.0,16.0,17,-99.99,,,0.00,704.000000,,2013-04-30 16:52:00,
2013-04-30 11:02:00,64.0,18.0,-100.00,SW,224,6.0,16.0,17,-99.99,,,0.00,704.000000,,2013-04-30 17:02:00,
2013-04-30 12:32:00,69.0,16.0,-100.00,WSW,237,17.0,30.0,13,-99.99,,,-99.99,801.000000,,2013-04-30 18:32:00,
2013-04-30 12:42:00,69.0,16.0,-100.00,WSW,237,17.0,30.0,13,-99.99,,,-99.99,801.000000,,2013-04-30 18:42:00,
2013-04-30 12:52:00,69.0,16.0,-100.00,WSW,237,17.0,30.0,13,-99.99,,,-99.99,801.000000,,2013-04-30 18:52:00,
2013-04-30 13:01:00,69.0,16.0,-100.00,WSW,237,17.0,30.0,13,-99.99,,,-99.99,801.000000,,2013-04-30 19:01:00,
2013-04-30 13:32:00,69.0,18.0,-100.00,WSW,240,19.0,33.0,14,0.00,,,-99.99,986.000000,,2013-04-30 19:32:00,
2013-04-30 13:42:00,69.0,18.0,-100.00,WSW,240,19.0,33.0,14,0.00,,,-99.99,986.000000,,2013-04-30 19:42:00,
2013-04-30 13:52:00,69.0,18.0,-100.00,WSW,240,19.0,33.0,14,0.00,,,-99.99,986.000000,,2013-04-30 19:52:00,
2013-04-30 14:02:00,69.0,18.0,-100.00,WSW,240,19.0,33.0,14,0.00,,,-99.99,986.000000,,2013-04-30 20:02:00,
2013-04-30 14:32:00,70.0,17.0,-100.00,WSW,241,20.0,33.0,13,0.00,,,0.00,950.000000,,2013-04-30 20:32:00,
2013-04-30 14:42:00,70.0,17.0,-100.00,WSW,241,20.0,33.0,13,0.00,,,0.00,950.000000,,2013-04-30 20:42:00,
2013-04-30 14:52:00,70.0,17.0,-100.00,WSW,241,20.0,33.0,13,0.00,,,0.00,950.000000,,2013-04-30 20:52:00,
2013-04-30 15:02:00,70.0,17.0,-100.00,WSW,241,20.0,33.0,13,0.00,,,0.00,950.000000,,2013-04-30 21:02:00,
2013-04-30 15:32:00,69.0,12.0,-100.00,SW,233,19.0,32.0,11,0.00,,,-99.99,809.000000,,2013-04-30 21:32:00,
2013-04-30 15:42:00,69.0,12.0,-100.00,SW,233,19.0,32.0,11,0.00,,,-99.99,809.000000,,2013-04-30 21:42:00,
2013-04-30 15:53:00,69.0,12.0,-100.00,SW,233,19.0,32.0,11,0.00,,,-99.99,809.000000,,2013-04-30 21:53:00,
2013-04-30 16:02:00,69.0,12.0,-100.00,SW,233,19.0,32.0,11,0.00,,,-99.99,809.000000,,2013-04-30 22:02:00,
2013-04-30 16:33:00,69.0,10.0,-100.00,SW,235,20.0,36.0,10,0.00,,,0.00,735.000000,,2013-04-30 22:33:00,
2013-04-30 16:42:00,69.0,10.0,-100.00,SW,235,20.0,36.0,10,0.00,,,0.00,735.000000,,2013-04-30 22:42:00,
2013-04-30 16:53:00,69.0,10.0,-100.00,SW,235,20.0,36.0,10,0.00,,,0.00,735.000000,,2013-04-30 22:53:00,
2013-04-30 17:02:00,69.0,10.0,-100.00,SW,235,20.0,36.0,10,0.00,,,0.00,735.000000,,2013-04-30 23:02:00,
2013-04-30 17:32:00,66.0,10.0,-100.00,WSW,241,17.0,32.0,11,0.00,,,0.00,403.000000,,2013-04-30 23:32:00,
2013-04-30 17:42:00,66.0,10.0,-100.00,WSW,241,17.0,32.0,11,0.00,,,0.00,403.000000,,2013-04-30 23:42:00,
2013-04-30 17:52:00,66.0,10.0,-100.00,WSW,241,17.0,32.0,11,0.00,,,0.00,403.000000,,2013-04-30 23:52:00,
2013-04-30 18:02:00,66.0,10.0,-100.00,WSW,241,17.0,32.0,11,0.00,,,0.00,403.000000,,2013-05-01 00:02:00,
2013-04-30 18:32:00,66.0,10.0,-100.00,SW,233,19.0,34.0,11,0.00,,,-99.99,301.000000,,2013-05-01 00:32:00,
2013-04-30 18:42:00,66.0,10.0,-100.00,SW,233,19.0,34.0,11,0.00,,,-99.99,301.000000,,2013-05-01 00:42:00,
2013-04-30 18:52:00,66.0,10.0,-100.00,SW,233,19.0,34.0,11,0.00,,,-99.99,301.000000,,2013-05-01 00:52:00,
2013-04-30 19:01:00,66.0,10.0,-100.00,SW,233,19.0,34.0,11,0.00,,,-99.99,301.000000,,2013-05-01 01:01:00,
2013-04-30 19:32:00,64.0,8.0,-100.00,WSW,249,14.0,31.0,11,0.00,,,-99.99,156.000000,,2013-05-01 01:32:00,
2013-04-30 19:42:00,64.0,8.0,-100.00,WSW,249,14.0,31.0,11,0.00,,,-99.99,156.000000,,2013-05-01 01:42:00,
2013-04-30 19:52:00,64.0,8.0,-100.00,WSW,249,14.0,31.0,11,0.00,,,-99.99,156.000000,,2013-05-01 01:52:00,
2013-04-30 20:02:00,64.0,8.0,-100.00,WSW,249,14.0,31.0,11,0.00,,,-99.99,156.000000,,2013-05-01 02:02:00,
2013-04-30 20:32:00,60.0,9.0,-100.00,SW,235,10.0,22.0,13,0.00,,,-99.99,32.000000,,2013-05-01 02:32:00,
2013-04-30 20:42:00,60.0,9.0,-100.00,SW,235,10.0,22.0,13,0.00,,,-99.99,32.000000,,2013-05-01 02:42:00,
2013-04-30 20:52:00,60.0,9.0,-100.00,SW,235,10.0,22.0,13,0.00,,,-99.99,32.000000,,2013-05-01 02:52:00,
2013-04-30 21:02:00,60.0,9.0,-100.00,SW,235,10.0,22.0,13,0.00,,,-99.99,32.000000,,2013-05-01 03:02:00,
2013-04-30 21:33:00,58.0,7.0,-100.00,WSW,243,7.0,20.0,13,0.00,,,-99.99,0.000000,,2013-05-01 03:33:00,
2013-04-30 21:43:00,58.0,7.0,-100.00,WSW,243,7.0,20.0,13,0.00,,,-99.99,0.000000,,2013-05-01 03:43:00,
2013-04-30 21:53:00,58.0,7.0,-100.00,WSW,243,7.0,20.0,13,0.00,,,-99.99,0.000000,,2013-05-01 03:53:00,
2013-04-30 22:03:00,58.0,7.0,-100.00,WSW,243,7.0,20.0,13,0.00,,,-99.99,0.000000,,2013-05-01 04:03:00,
2013-04-30 22:32:00,57.0,8.0,-100.00,SSW,212,6.0,14.0,14,0.00,,,-99.99,0.000000,,2013-05-01 04:32:00,
2013-04-30 22:43:00,57.0,8.0,-100.00,SSW,212,6.0,14.0,14,0.00,,,-99.99,0.000000,,2013-05-01 04:43:00,
2013-04-30 22:52:00,57.0,8.0,-100.00,SSW,212,6.0,14.0,14,0.00,,,-99.99,0.000000,,2013-05-01 04:52:00,
2013-04-30 23:02:00,57.0,8.0,-100.00,SSW,212,6.0,14.0,14,0.00,,,-99.99,0.000000,,2013-05-01 05:02:00,
2013-04-30 23:32:00,49.0,7.0,-100.00,West,266,4.0,8.0,18,0.00,,,-99.99,0.000000,,2013-05-01 05:32:00,
2013-04-30 23:42:00,49.0,7.0,-100.00,West,266,4.0,8.0,18,0.00,,,-99.99,0.000000,,2013-05-01 05:42:00,
2013-04-30 23:52:00,49.0,7.0,-100.00,West,266,4.0,8.0,18,0.00,,,-99.99,0.000000,,2013-05-01 05:52:00,